User: anonymous   Login
Location: Unspecified
(0.0000°N, 0.0000°E)
Time: 15:23:51
(UTC+00:00)
Language:

OPTOS - Orbit

View from above orbital plane
View from above orbital plane
View from above satellite
View from above satellite

Ground track
Ground track

The orbit data is extracted from the following two-line orbital elements,

1 39429U 13066P   18052.22341719  .00000346  00000-0  70090-4 0  9991
2 39429  97.6785  40.4884 0146689 327.4680  31.7530 14.60673294226464
Epoch (UTC): 21 February 2018 05:21:43
Eccentricity: 0.0146689
inclination: 97.6785°
perigee height: 587 km
apogee height: 795 km
right ascension of ascending node: 40.4884°
argument of perigee: 327.4680°
revolutions per day: 14.60673294
mean anomaly at epoch: 31.7530°
orbit number at epoch: 22646

The dashed part of the orbit path shows where the satellite is in the earth's shadow,  

DLR